TimeCST,TemperatureF,Dew PointF,Humidity,Sea Level PressureIn,VisibilityMPH,Wind Direction,Wind SpeedMPH,Gust SpeedMPH,PrecipitationIn,Events,Conditions,WindDirDegrees,DateUTC
12:16 AM,3.7,-0.0,84,29.96,4.0,Calm,Calm,-,N/A,Snow,Light Snow,0,2014-01-22 06:16:00
12:36 AM,3.9,0.3,85,29.96,5.0,Calm,Calm,-,N/A,Snow,Light Snow,0,2014-01-22 06:36:00
12:55 AM,4.1,0.7,86,29.96,5.0,Calm,Calm,-,N/A,Snow,Light Snow,0,2014-01-22 06:55:00
1:16 AM,5.0,1.4,85,29.96,2.5,West,3.5,-,N/A,Snow,Light Snow,260,2014-01-22 07:16:00
1:36 AM,5.5,2.1,86,29.96,5.0,West,5.8,-,N/A,Snow,Light Snow,270,2014-01-22 07:36:00
1:55 AM,6.3,2.1,83,29.96,10.0,West,10.4,-,N/A,Snow,Light Snow,280,2014-01-22 07:55:00
2:16 AM,6.1,1.4,81,29.97,10.0,WNW,11.5,-,N/A,Snow,Light Snow,290,2014-01-22 08:16:00
2:35 AM,5.5,0.5,80,29.97,10.0,WNW,11.5,-,N/A,,Overcast,300,2014-01-22 08:35:00
2:55 AM,5.4,0.3,80,29.97,10.0,WNW,9.2,-,N/A,,Overcast,300,2014-01-22 08:55:00
3:16 AM,5.0,-0.0,80,29.97,10.0,WNW,8.1,-,N/A,,Overcast,300,2014-01-22 09:16:00
3:35 AM,4.8,-0.4,79,29.98,10.0,West,6.9,-,N/A,,Overcast,280,2014-01-22 09:35:00
3:56 AM,4.1,-1.1,79,29.98,10.0,West,5.8,-,N/A,,Overcast,280,2014-01-22 09:56:00
4:16 AM,3.2,-1.3,82,29.97,10.0,West,5.8,-,N/A,,Overcast,270,2014-01-22 10:16:00
4:35 AM,3.2,-1.3,82,29.97,10.0,WSW,3.5,-,N/A,,Overcast,250,2014-01-22 10:35:00
4:56 AM,3.2,-1.5,81,29.97,10.0,West,5.8,-,N/A,,Overcast,260,2014-01-22 10:56:00
5:16 AM,3.0,-1.7,81,29.97,10.0,WSW,3.5,-,N/A,,Overcast,240,2014-01-22 11:16:00
5:35 AM,3.2,-1.5,81,29.97,10.0,WSW,3.5,-,N/A,,Overcast,250,2014-01-22 11:35:00
5:56 AM,5.4,0.1,79,29.97,10.0,West,11.5,-,N/A,,Overcast,280,2014-01-22 11:56:00
6:16 AM,5.7,0.1,78,29.97,5.0,West,10.4,16.1,N/A,Snow,Light Snow,270,2014-01-22 12:16:00
6:35 AM,5.7,0.5,79,29.97,4.0,WNW,10.4,-,N/A,Snow,Light Snow,290,2014-01-22 12:35:00
6:56 AM,5.5,0.5,80,29.99,5.0,West,10.4,-,N/A,Snow,Light Snow,280,2014-01-22 12:56:00
7:16 AM,5.7,0.3,78,29.99,5.0,WNW,13.8,20.7,N/A,,Haze,290,2014-01-22 13:16:00
7:35 AM,5.7,-0.6,75,29.99,5.0,WNW,11.5,23.0,N/A,Snow,Light Snow,300,2014-01-22 13:35:00
7:56 AM,5.5,-1.3,73,30.00,10.0,WNW,13.8,19.6,N/A,,Overcast,300,2014-01-22 13:56:00
8:16 AM,4.1,-3.1,72,30.01,5.0,WNW,12.7,21.9,N/A,,Haze,300,2014-01-22 14:16:00
8:36 AM,3.9,-3.5,71,30.02,10.0,NW,6.9,-,N/A,,Mostly Cloudy,320,2014-01-22 14:36:00
8:56 AM,3.6,-4.7,68,30.04,4.0,NW,11.5,24.2,N/A,,Haze,310,2014-01-22 14:56:00
9:15 AM,3.0,-5.8,67,30.04,3.0,NW,16.1,24.2,N/A,,Haze,310,2014-01-22 15:15:00
9:36 AM,3.2,-6.2,65,30.05,5.0,NW,13.8,23.0,N/A,,Haze,310,2014-01-22 15:36:00
9:56 AM,3.6,-6.2,64,30.06,7.0,NW,16.1,20.7,N/A,,Clear,310,2014-01-22 15:56:00
10:15 AM,3.4,-6.3,64,30.08,1.8,NW,13.8,28.8,N/A,,Haze,320,2014-01-22 16:15:00
10:36 AM,3.4,-6.7,63,30.08,1.8,NW,15.0,24.2,N/A,,Haze,320,2014-01-22 16:36:00
10:56 AM,3.4,-6.7,63,30.09,5.0,NW,15.0,23.0,N/A,,Haze,320,2014-01-22 16:56:00
11:15 AM,3.2,-8.0,60,30.11,2.0,NW,17.3,27.6,N/A,,Haze,320,2014-01-22 17:15:00
11:36 AM,3.0,-8.0,60,30.12,4.0,NW,15.0,26.5,N/A,,Haze,320,2014-01-22 17:36:00
11:56 AM,1.9,-10.1,57,30.12,2.5,NNW,16.1,28.8,N/A,,Haze,330,2014-01-22 17:56:00
12:15 PM,1.9,-10.7,56,30.13,5.0,NW,16.1,26.5,N/A,,Haze,320,2014-01-22 18:15:00
12:36 PM,1.9,-10.1,57,30.13,5.0,NW,16.1,27.6,N/A,,Haze,320,2014-01-22 18:36:00
12:56 PM,1.2,-10.5,58,30.14,5.0,NW,19.6,26.5,N/A,,Haze,310,2014-01-22 18:56:00
1:15 PM,1.4,-11.0,56,30.14,7.0,NNW,16.1,24.2,N/A,,Scattered Clouds,330,2014-01-22 19:15:00
1:36 PM,1.0,-11.6,56,30.15,5.0,NW,16.1,26.5,N/A,,Haze,320,2014-01-22 19:36:00
1:56 PM,1.0,-11.4,56,30.16,5.0,NNW,13.8,24.2,N/A,,Haze,330,2014-01-22 19:56:00
2:15 PM,1.2,-10.3,59,30.16,7.0,NW,18.4,26.5,N/A,,Scattered Clouds,320,2014-01-22 20:15:00
2:36 PM,1.0,-11.2,57,30.17,10.0,NNW,16.1,24.2,N/A,,Scattered Clouds,330,2014-01-22 20:36:00
2:56 PM,0.7,-11.2,57,30.19,4.0,NW,20.7,27.6,N/A,,Haze,310,2014-01-22 20:56:00
3:15 PM,0.5,-12.1,55,30.20,4.0,NNW,17.3,29.9,N/A,,Haze,330,2014-01-22 21:15:00
3:36 PM,0.7,-12.1,55,30.22,10.0,NW,9.2,-,N/A,,Clear,310,2014-01-22 21:36:00
3:56 PM,0.5,-12.3,55,30.24,10.0,NW,11.5,24.2,N/A,,Clear,320,2014-01-22 21:56:00
4:15 PM,0.3,-12.8,54,30.25,5.0,NNW,18.4,26.5,N/A,,Haze,330,2014-01-22 22:15:00
4:36 PM,-0.4,-13.2,55,30.27,10.0,NW,11.5,21.9,N/A,,Clear,320,2014-01-22 22:36:00
4:56 PM,-0.9,-13.0,57,30.28,10.0,NW,11.5,20.7,N/A,,Clear,320,2014-01-22 22:56:00
5:15 PM,-1.3,-13.2,57,30.29,10.0,NW,10.4,-,N/A,,Clear,310,2014-01-22 23:15:00
5:36 PM,-2.0,-13.5,58,30.31,10.0,WNW,12.7,19.6,N/A,,Clear,300,2014-01-22 23:36:00
5:56 PM,-2.2,-13.5,59,30.31,10.0,NW,12.7,21.9,N/A,,Clear,310,2014-01-22 23:56:00
6:15 PM,-2.7,-14.1,58,30.33,10.0,WNW,11.5,19.6,N/A,,Clear,300,2014-01-23 00:15:00
6:36 PM,-3.3,-14.3,59,30.34,10.0,NW,12.7,18.4,N/A,,Clear,310,2014-01-23 00:36:00
6:56 PM,-3.6,-14.4,60,30.35,10.0,WNW,11.5,17.3,N/A,,Clear,300,2014-01-23 00:56:00
7:15 PM,-4.2,-14.8,60,30.36,10.0,WNW,10.4,-,N/A,,Clear,300,2014-01-23 01:15:00
7:36 PM,-4.5,-15.0,61,30.38,10.0,WNW,11.5,-,N/A,,Clear,300,2014-01-23 01:36:00
7:56 PM,-5.1,-15.3,61,30.39,10.0,NW,16.1,-,N/A,,Clear,310,2014-01-23 01:56:00
8:15 PM,-5.4,-15.7,61,30.40,10.0,NW,11.5,18.4,N/A,,Clear,310,2014-01-23 02:15:00
8:36 PM,-5.8,-15.7,62,30.41,10.0,WNW,9.2,20.7,N/A,,Clear,300,2014-01-23 02:36:00
8:56 PM,-7.1,-16.1,65,30.42,10.0,WNW,10.4,-,N/A,,Clear,290,2014-01-23 02:56:00
9:15 PM,-8.0,-17.1,64,30.43,10.0,WNW,11.5,18.4,N/A,,Clear,300,2014-01-23 03:15:00
9:36 PM,-8.7,-17.5,65,30.45,10.0,WNW,10.4,-,N/A,,Clear,290,2014-01-23 03:36:00
9:56 PM,-9.4,-18.4,65,30.46,10.0,WNW,9.2,-,N/A,,Clear,300,2014-01-23 03:56:00
10:16 PM,-9.9,-18.6,66,30.48,10.0,WNW,8.1,-,N/A,,Clear,300,2014-01-23 04:16:00
10:36 PM,-10.3,-18.6,67,30.48,10.0,NW,9.2,17.3,N/A,,Clear,310,2014-01-23 04:36:00
10:56 PM,-10.7,-19.1,66,30.48,10.0,NW,8.1,-,N/A,,Clear,310,2014-01-23 04:56:00
11:16 PM,-10.8,-19.3,66,30.50,10.0,NW,6.9,-,N/A,,Clear,310,2014-01-23 05:16:00
11:36 PM,-11.2,-19.3,67,30.51,10.0,NW,9.2,-,N/A,,Clear,310,2014-01-23 05:36:00
11:56 PM,-11.6,-19.7,67,30.52,10.0,WNW,10.4,-,N/A,,Clear,300,2014-01-23 05:56:00